Meteo Giornale » Osservazioni meteo Stati Uniti (USA) » Ketchikan
ore: 10:53 - Osservazioni Meteo Ketchikan
Lat. 55° 21' N Lon. 131° 43' W Alt. 26 metri s.l.m.
14 °C
Coperto
Temp. 24 Ore
11 °C
17 °C
Est/Sud-Est
13 Km/h
Dew point 13 °C
Umidità 93 %
Visibilità 10 Km
Il sole sorge alle ore 05:51
Il sole tramonta alle ore 19:42
| Data e Ora | Cielo e Fenomeni | T °C | DP °C | Um. % | Pres. hPa | Vis. km | Vento km/h | |
|---|---|---|---|---|---|---|---|---|
| Oggi h: 10:53 | Coperto | 14 | 13 | 93 | 1007 | 10 | E/SE 13 | |
| Oggi h: 09:53 | Coperto | 14 | 13 | 93 | 1007 | 10 | N 5.5 | |
| Oggi h: 08:53 | Coperto | 13 | 12 | 93 | 1007 | 10 | N 0 | |
| Oggi h: 07:53 | Coperto | 12 | 12 | 100 | 1007 | 10 | N 0 | |
| Oggi h: 06:53 | Coperto | 12 | 12 | 100 | 1007 | 11 | N 0 | |
| Oggi h: 06:04 | Coperto | 12 | 12 | 100 | 1007 | 8 | N 0 | |
| Oggi h: 05:53 | Foschia | 12 | 12 | 100 | 1007 | 6 | N 0 | |
| Oggi h: 05:50 | Foschia | 12 | 12 | 100 | 1008 | 6 | N 0 | |
| Oggi h: 05:39 | Foschia | 12 | 12 | 100 | 1008 | 6 | N 0 | |
| Oggi h: 04:53 | Coperto | 12 | 12 | 100 | 1008 | 13 | N 0 | |
| Oggi h: 04:27 | Foschia | 12 | 12 | 100 | 1008 | 6 | N 0 | |
| Oggi h: 04:05 | Coperto | 12 | 12 | 100 | 1008 | 10 | N 5.5 | |
| Oggi h: 02:53 | Coperto | 11 | 11 | 100 | 1009 | 10 | N 5.5 | |
| Oggi h: 01:53 | Coperto | 11 | 11 | 100 | 1009 | 10 | N 0 | |
| Oggi h: 00:53 | Coperto | 12 | 12 | 100 | 1010 | 10 | N 0 | |
| Ieri h: 23:53 | Coperto | 11 | 11 | 100 | 1010 | 10 | N 0 | |
| Ieri h: 22:53 | Coperto | 12 | 12 | 100 | 1011 | 10 | N 5.5 | |
| Ieri h: 21:32 | Coperto | 13 | 12 | 93 | 1011 | 10 | S/SE 9.3 | |
| Ieri h: 21:24 | Coperto | 13 | 12 | 93 | 1011 | 10 | SE 9.3 | |
| Ieri h: 20:53 | Coperto | 13 | 12 | 93 | 1011 | 10 | SE 9.3 | |
| Ieri h: 19:53 | Coperto | 13 | 12 | 93 | 1011 | 10 | SE 13 | |
| Ieri h: 18:53 | Molto Nuvoloso | 14 | 13 | 93 | 1011 | 10 | SE 16.7 | |
| Ieri h: 17:53 | Molto Nuvoloso | 14 | 13 | 93 | 1011 | 10 | SE 13 | |
| Ieri h: 16:53 | Molto Nuvoloso | 16 | 13 | 82 | 1011 | 10 | SE 14.8 | |
| Ieri h: 15:53 | Molto Nuvoloso | 16 | 13 | 82 | 1011 | 10 | SE 22.2 | |
| Ieri h: 14:53 | Molto Nuvoloso | 17 | 13 | 77 | 1011 | 10 | SE 18.5 | |
| Ieri h: 13:53 | Molto Nuvoloso | 16 | 13 | 82 | 1011 | 10 | SE 18.5 | |
| Ieri h: 12:53 | Molto Nuvoloso | 16 | 14 | 87 | 1011 | 10 | S/SE 14.8 | |
| Ieri h: 11:53 | Molto Nuvoloso | 16 | 14 | 87 | 1011 | 10 | SE 20.3 | |



